Time,TemperatureF,DewpointF,PressureIn,WindDirection,WindDirectionDegrees,WindSpeedMPH,WindSpeedGustMPH,Humidity,HourlyPrecipIn,Conditions,Clouds,dailyrainin,SolarRadiationWatts/m^2,SoftwareType,DateUTC
2013-03-20 12:04:00,57.2,53.7,30.03,South,173,1.0,1.0,88,0.00,,,0.21,258,Wunderground v.1.15,2013-03-20 19:04:00,
2013-03-20 12:06:00,57.4,53.9,30.03,SW,217,1.0,1.0,88,0.00,,,0.21,221,Wunderground v.1.15,2013-03-20 19:06:00,
2013-03-20 12:10:00,57.8,54.3,30.03,South,189,2.0,2.0,88,0.00,,,0.21,158,Wunderground v.1.15,2013-03-20 19:10:00,
2013-03-20 12:16:00,58.1,54.6,30.03,SSE,165,2.0,6.0,88,0.00,,,0.21,155,Wunderground v.1.15,2013-03-20 19:16:00,
2013-03-20 12:22:00,58.5,54.6,30.03,SSW,192,2.0,3.0,87,0.00,,,0.21,125,Wunderground v.1.15,2013-03-20 19:22:00,
2013-03-20 12:28:00,58.5,54.3,30.02,SW,221,3.0,3.0,86,0.00,,,0.21,206,Wunderground v.1.15,2013-03-20 19:28:00,
2013-03-20 12:34:00,58.5,53.7,30.02,SW,225,3.0,3.0,84,0.00,,,0.21,315,Wunderground v.1.15,2013-03-20 19:34:00,
2013-03-20 12:40:00,59.1,53.6,30.02,South,190,4.0,4.0,82,0.00,,,0.21,359,Wunderground v.1.15,2013-03-20 19:40:00,
2013-03-20 12:48:00,59.9,54.1,30.02,South,171,3.0,6.0,81,0.00,,,0.21,399,Wunderground v.1.15,2013-03-20 19:48:00,
2013-03-20 12:54:00,60.0,53.5,30.02,South,190,4.0,11.0,79,0.00,,,0.21,250,Wunderground v.1.15,2013-03-20 19:54:00,
2013-03-20 13:00:00,60.2,54.0,30.02,SSE,152,4.0,4.0,80,0.00,,,0.21,229,Wunderground v.1.15,2013-03-20 20:00:00,
2013-03-20 13:06:00,60.2,54.0,30.02,South,176,4.0,8.0,80,0.00,,,0.21,181,Wunderground v.1.15,2013-03-20 20:06:00,
2013-03-20 13:12:00,60.1,53.9,30.03,South,184,4.0,7.0,80,0.00,,,0.21,116,Wunderground v.1.15,2013-03-20 20:12:00,
2013-03-20 13:18:00,59.9,53.7,30.03,SSW,193,4.0,7.0,80,0.00,,,0.21,127,Wunderground v.1.15,2013-03-20 20:18:00,
2013-03-20 13:24:00,59.7,53.2,30.03,SSW,201,3.0,5.0,79,0.00,,,0.21,111,Wunderground v.1.15,2013-03-20 20:24:00,
2013-03-20 13:30:00,59.6,53.4,30.03,SSW,196,3.0,4.0,80,0.00,,,0.21,197,Wunderground v.1.15,2013-03-20 20:30:00,
2013-03-20 13:36:00,59.6,53.8,30.03,SW,215,3.0,7.0,81,0.00,,,0.21,227,Wunderground v.1.15,2013-03-20 20:36:00,
2013-03-20 13:44:00,59.2,54.0,30.03,WSW,241,3.0,3.0,83,0.00,,,0.22,258,Wunderground v.1.15,2013-03-20 20:44:00,
2013-03-20 13:50:00,58.5,53.7,30.03,South,185,3.0,6.0,84,0.00,,,0.22,295,Wunderground v.1.15,2013-03-20 20:50:00,
2013-03-20 13:56:00,59.0,54.5,30.03,SSW,202,2.0,6.0,85,0.00,,,0.22,519,Wunderground v.1.15,2013-03-20 20:56:00,
2013-03-20 14:02:00,59.9,55.4,30.03,South,183,3.0,12.0,85,0.00,,,0.22,496,Wunderground v.1.15,2013-03-20 21:02:00,
2013-03-20 14:08:00,60.7,55.8,30.03,South,175,4.0,12.0,84,0.00,,,0.22,313,Wunderground v.1.15,2013-03-20 21:08:00,
2013-03-20 14:14:00,60.8,55.6,30.02,SW,235,4.0,7.0,83,0.00,,,0.22,380,Wunderground v.1.15,2013-03-20 21:14:00,
2013-03-20 14:20:00,60.8,55.6,30.02,SSW,195,5.0,5.0,83,0.00,,,0.22,371,Wunderground v.1.15,2013-03-20 21:20:00,
2013-03-20 14:28:00,60.9,55.7,30.03,SSW,212,5.0,7.0,83,0.00,,,0.22,401,Wunderground v.1.15,2013-03-20 21:28:00,
2013-03-20 14:34:00,60.8,55.6,30.02,SW,236,5.0,9.0,83,0.00,,,0.22,501,Wunderground v.1.15,2013-03-20 21:34:00,
2013-03-20 14:40:00,61.2,56.0,30.02,SSW,208,5.0,5.0,83,0.00,,,0.22,563,Wunderground v.1.15,2013-03-20 21:40:00,
2013-03-20 14:46:00,61.8,56.2,30.01,WSW,243,4.0,7.0,82,0.00,,,0.22,926,Wunderground v.1.15,2013-03-20 21:46:00,
2013-03-20 14:52:00,62.2,56.6,30.01,South,169,5.0,14.0,82,0.00,,,0.22,918,Wunderground v.1.15,2013-03-20 21:52:00,
2013-03-20 14:58:00,62.8,56.9,30.00,SW,228,6.0,14.0,81,0.00,,,0.22,812,Wunderground v.1.15,2013-03-20 21:58:00,
2013-03-20 15:04:00,62.6,56.3,30.01,SSE,165,6.0,15.0,80,0.00,,,0.22,761,Wunderground v.1.15,2013-03-20 22:04:00,
2013-03-20 15:10:00,62.3,56.0,30.01,SW,221,6.0,6.0,80,0.00,,,0.22,847,Wunderground v.1.15,2013-03-20 22:10:00,
2013-03-20 15:16:00,62.3,56.0,30.01,SW,219,5.0,12.0,80,0.00,,,0.22,770,Wunderground v.1.15,2013-03-20 22:16:00,
2013-03-20 15:22:00,62.0,56.1,30.01,SW,219,5.0,5.0,81,0.00,,,0.22,784,Wunderground v.1.15,2013-03-20 22:22:00,
2013-03-20 15:28:00,62.4,56.1,30.01,SSW,202,5.0,7.0,80,0.00,,,0.22,805,Wunderground v.1.15,2013-03-20 22:28:00,
2013-03-20 15:34:00,63.1,56.8,30.01,SW,236,4.0,4.0,80,0.00,,,0.22,914,Wunderground v.1.15,2013-03-20 22:34:00,
2013-03-20 15:40:00,62.8,56.2,30.01,South,185,4.0,4.0,79,0.00,,,0.22,332,Wunderground v.1.15,2013-03-20 22:40:00,
2013-03-20 15:46:00,62.6,56.0,30.01,SSW,202,3.0,4.0,79,0.00,,,0.22,473,Wunderground v.1.15,2013-03-20 22:46:00,
2013-03-20 15:52:00,62.9,56.3,30.00,SW,235,2.0,4.0,79,0.00,,,0.22,244,Wunderground v.1.15,2013-03-20 22:52:00,
2013-03-20 15:58:00,63.1,56.1,30.00,WSW,248,3.0,4.0,78,0.00,,,0.22,492,Wunderground v.1.15,2013-03-20 22:58:00,
2013-03-20 16:04:00,63.9,56.9,30.00,South,182,3.0,16.0,78,0.00,,,0.22,534,Wunderground v.1.15,2013-03-20 23:04:00,
2013-03-20 16:10:00,64.6,56.9,30.00,SW,217,2.0,3.0,76,0.00,,,0.22,705,Wunderground v.1.15,2013-03-20 23:10:00,
2013-03-20 16:18:00,64.6,56.5,30.00,South,174,2.0,4.0,75,0.00,,,0.22,677,Wunderground v.1.15,2013-03-20 23:18:00,
2013-03-20 16:24:00,64.8,56.7,30.00,SE,124,2.0,2.0,75,0.00,,,0.22,617,Wunderground v.1.15,2013-03-20 23:24:00,
2013-03-20 16:30:00,65.2,56.7,29.99,SSE,162,2.0,3.0,74,0.00,,,0.22,613,Wunderground v.1.15,2013-03-20 23:30:00,
2013-03-20 16:38:00,65.4,56.9,29.99,South,174,1.0,3.0,74,0.00,,,0.22,561,Wunderground v.1.15,2013-03-20 23:38:00,
2013-03-20 16:44:00,65.3,56.8,29.99,SSW,192,2.0,2.0,74,0.00,,,0.22,573,Wunderground v.1.15,2013-03-20 23:44:00,
2013-03-20 16:50:00,64.9,56.4,29.99,SW,227,2.0,2.0,74,0.00,,,0.22,541,Wunderground v.1.15,2013-03-20 23:50:00,
2013-03-20 16:56:00,65.1,56.6,29.99,SSE,160,2.0,10.0,74,0.00,,,0.22,482,Wunderground v.1.15,2013-03-20 23:56:00,
2013-03-20 17:02:00,65.4,56.5,29.99,SSE,167,2.0,4.0,73,0.00,,,0.22,471,Wunderground v.1.15,2013-03-21 00:02:00,
2013-03-20 17:08:00,65.3,56.4,29.99,SSE,152,3.0,6.0,73,0.00,,,0.22,459,Wunderground v.1.15,2013-03-21 00:08:00,
2013-03-20 17:14:00,65.2,57.1,29.99,SSW,196,3.0,5.0,75,0.00,,,0.22,452,Wunderground v.1.15,2013-03-21 00:14:00,
2013-03-20 17:20:00,65.1,57.0,29.99,SSE,167,4.0,4.0,75,0.00,,,0.22,508,Wunderground v.1.15,2013-03-21 00:20:00,
2013-03-20 17:26:00,64.5,56.0,29.99,SSE,154,4.0,5.0,74,0.00,,,0.22,144,Wunderground v.1.15,2013-03-21 00:26:00,
2013-03-20 17:32:00,63.8,56.1,29.99,South,169,2.0,3.0,76,0.00,,,0.22,169,Wunderground v.1.15,2013-03-21 00:32:00,
2013-03-20 17:38:00,63.3,56.0,29.99,South,188,2.0,3.0,77,0.00,,,0.22,163,Wunderground v.1.15,2013-03-21 00:38:00,
2013-03-20 17:44:00,63.3,56.3,29.99,SW,215,2.0,6.0,78,0.00,,,0.22,209,Wunderground v.1.15,2013-03-21 00:44:00,
2013-03-20 17:50:00,63.1,55.4,29.99,South,171,2.0,2.0,76,0.00,,,0.22,98,Wunderground v.1.15,2013-03-21 00:50:00,
2013-03-20 17:58:00,62.3,55.0,29.99,South,181,2.0,7.0,77,0.00,,,0.22,97,Wunderground v.1.15,2013-03-21 00:58:00,
2013-03-20 18:04:00,62.0,55.4,29.99,SSW,198,3.0,12.0,79,0.00,,,0.22,62,Wunderground v.1.15,2013-03-21 01:04:00,
2013-03-20 18:10:00,61.7,55.1,29.99,SW,224,2.0,2.0,79,0.00,,,0.22,40,Wunderground v.1.15,2013-03-21 01:10:00,
2013-03-20 18:18:00,61.3,55.1,29.99,SW,220,1.0,5.0,80,0.00,,,0.22,35,Wunderground v.1.15,2013-03-21 01:18:00,
2013-03-20 18:24:00,61.0,54.8,29.99,SW,228,1.0,3.0,80,0.00,,,0.22,44,Wunderground v.1.15,2013-03-21 01:24:00,
2013-03-20 18:30:00,60.7,54.5,30.00,SW,222,1.0,1.0,80,0.00,,,0.22,51,Wunderground v.1.15,2013-03-21 01:30:00,
2013-03-20 18:38:00,60.5,54.6,30.00,SSW,192,2.0,5.0,81,0.00,,,0.22,51,Wunderground v.1.15,2013-03-21 01:38:00,
2013-03-20 18:44:00,60.4,54.9,30.00,SSW,196,3.0,3.0,82,0.00,,,0.22,35,Wunderground v.1.15,2013-03-21 01:44:00,
2013-03-20 18:50:00,60.3,54.8,30.00,SSW,204,0.0,0.0,82,0.00,,,0.22,25,Wunderground v.1.15,2013-03-21 01:50:00,
2013-03-20 18:58:00,60.1,54.6,30.00,SW,223,0.0,1.0,82,0.00,,,0.22,19,Wunderground v.1.15,2013-03-21 01:58:00,
2013-03-20 19:04:00,60.0,54.5,30.00,WSW,238,2.0,11.0,82,0.00,,,0.22,12,Wunderground v.1.15,2013-03-21 02:04:00,
2013-03-20 19:10:00,59.8,54.3,30.00,WSW,238,2.0,2.0,82,0.00,,,0.22,9,Wunderground v.1.15,2013-03-21 02:10:00,
2013-03-20 19:18:00,59.5,54.0,30.00,SW,219,0.0,2.0,82,0.00,,,0.22,5,Wunderground v.1.15,2013-03-21 02:18:00,
2013-03-20 19:24:00,59.2,54.0,30.00,SSE,167,0.0,0.0,83,0.00,,,0.22,0,Wunderground v.1.15,2013-03-21 02:24:00,
2013-03-20 19:30:00,58.9,53.7,29.99,South,169,0.0,0.0,83,0.00,,,0.22,0,Wunderground v.1.15,2013-03-21 02:30:00,
2013-03-20 19:36:00,58.5,53.4,29.99,SSE,157,0.0,0.0,83,0.00,,,0.22,0,Wunderground v.1.15,2013-03-21 02:36:00,
2013-03-20 19:42:00,58.5,53.7,30.00,SSE,155,0.0,0.0,84,0.00,,,0.22,0,Wunderground v.1.15,2013-03-21 02:42:00,
2013-03-20 19:48:00,58.1,53.3,30.00,SE,135,0.0,0.0,84,0.00,,,0.22,0,Wunderground v.1.15,2013-03-21 02:48:00,
2013-03-20 19:54:00,57.7,52.9,30.00,SE,135,0.0,0.0,84,0.00,,,0.22,0,Wunderground v.1.15,2013-03-21 02:54:00,
2013-03-20 20:00:00,57.3,52.8,30.00,SE,136,0.0,0.0,85,0.00,,,0.22,0,Wunderground v.1.15,2013-03-21 03:00:00,
2013-03-20 20:08:00,56.8,52.3,30.00,SE,136,0.0,8.0,85,0.00,,,0.22,0,Wunderground v.1.15,2013-03-21 03:08:00,
2013-03-20 20:14:00,56.4,51.9,30.00,SE,136,0.0,0.0,85,0.00,,,0.22,0,Wunderground v.1.15,2013-03-21 03:14:00,
2013-03-20 20:20:00,56.0,51.9,30.01,SE,136,0.0,0.0,86,0.00,,,0.22,0,Wunderground v.1.15,2013-03-21 03:20:00,
2013-03-20 20:28:00,55.6,51.5,30.01,SE,136,0.0,0.0,86,0.00,,,0.22,0,Wunderground v.1.15,2013-03-21 03:28:00,
2013-03-20 20:34:00,55.4,51.3,30.01,SE,136,0.0,0.0,86,0.00,,,0.22,0,Wunderground v.1.15,2013-03-21 03:34:00,
2013-03-20 20:40:00,55.2,51.1,30.01,SE,136,0.0,0.0,86,0.00,,,0.22,0,Wunderground v.1.15,2013-03-21 03:40:00,
2013-03-20 20:48:00,54.9,51.1,30.01,SE,136,0.0,0.0,87,0.00,,,0.22,0,Wunderground v.1.15,2013-03-21 03:48:00,
2013-03-20 20:54:00,54.6,50.8,30.02,SE,136,0.0,0.0,87,0.00,,,0.22,0,Wunderground v.1.15,2013-03-21 03:54:00,
2013-03-20 21:00:00,54.4,50.6,30.01,ESE,123,0.0,0.0,87,0.00,,,0.22,0,Wunderground v.1.15,2013-03-21 04:00:00,
2013-03-20 21:02:00,54.3,50.5,30.01,SE,137,0.0,9.0,87,0.00,,,0.22,0,Wunderground v.1.15,2013-03-21 04:02:00,
2013-03-20 21:04:00,54.2,50.4,30.02,SE,129,0.0,9.0,87,0.00,,,0.22,0,Wunderground v.1.15,2013-03-21 04:04:00,
2013-03-20 21:10:00,54.2,50.4,30.02,SE,124,0.0,0.0,87,0.00,,,0.22,0,Wunderground v.1.15,2013-03-21 04:10:00,
2013-03-20 21:16:00,54.1,50.3,30.02,SE,124,0.0,0.0,87,0.00,,,0.22,0,Wunderground v.1.15,2013-03-21 04:16:00,
2013-03-20 21:20:00,54.0,50.2,30.02,SE,124,0.0,0.0,87,0.00,,,0.22,0,Wunderground v.1.15,2013-03-21 04:20:00,
2013-03-20 21:26:00,53.8,50.3,30.02,SE,126,0.0,0.0,88,0.00,,,0.22,0,Wunderground v.1.15,2013-03-21 04:26:00,
2013-03-20 21:32:00,53.7,50.2,30.02,SW,229,0.0,0.0,88,0.00,,,0.22,0,Wunderground v.1.15,2013-03-21 04:32:00,
2013-03-20 21:38:00,53.7,50.2,30.02,SW,235,0.0,0.0,88,0.00,,,0.22,0,Wunderground v.1.15,2013-03-21 04:38:00,
2013-03-20 21:44:00,53.7,50.2,30.02,SW,227,0.0,0.0,88,0.00,,,0.22,0,Wunderground v.1.15,2013-03-21 04:44:00,
2013-03-20 21:50:00,53.7,50.2,30.02,SW,234,1.0,2.0,88,0.00,,,0.22,0,Wunderground v.1.15,2013-03-21 04:50:00,
2013-03-20 21:56:00,53.6,49.8,30.02,WSW,238,2.0,3.0,87,0.00,,,0.22,0,Wunderground v.1.15,2013-03-21 04:56:00,
2013-03-20 22:02:00,53.4,49.6,30.02,WSW,244,2.0,4.0,87,0.00,,,0.22,0,Wunderground v.1.15,2013-03-21 05:02:00,
2013-03-20 22:08:00,53.3,49.5,30.02,SSW,212,1.0,4.0,87,0.00,,,0.22,0,Wunderground v.1.15,2013-03-21 05:08:00,
2013-03-20 22:14:00,53.2,49.4,30.03,SE,127,0.0,1.0,87,0.00,,,0.22,0,Wunderground v.1.15,2013-03-21 05:14:00,
2013-03-20 22:20:00,52.9,49.1,30.03,ESE,119,0.0,0.0,87,0.00,,,0.22,0,Wunderground v.1.15,2013-03-21 05:20:00,
2013-03-20 22:26:00,52.5,48.7,30.03,ESE,115,0.0,1.0,87,0.00,,,0.22,0,Wunderground v.1.15,2013-03-21 05:26:00,
2013-03-20 22:32:00,52.2,48.4,30.03,ESE,120,0.0,0.0,87,0.00,,,0.22,0,Wunderground v.1.15,2013-03-21 05:32:00,
2013-03-20 22:38:00,52.0,48.3,30.03,ESE,117,0.0,0.0,87,0.00,,,0.22,0,Wunderground v.1.15,2013-03-21 05:38:00,
2013-03-20 22:44:00,51.9,48.5,30.03,South,188,0.0,0.0,88,0.00,,,0.22,0,Wunderground v.1.15,2013-03-21 05:44:00,
2013-03-20 22:50:00,51.7,48.3,30.03,South,190,0.0,0.0,88,0.00,,,0.22,0,Wunderground v.1.15,2013-03-21 05:50:00,
2013-03-20 22:56:00,51.4,48.0,30.03,SSW,205,0.0,0.0,88,0.00,,,0.22,0,Wunderground v.1.15,2013-03-21 05:56:00,
2013-03-20 23:02:00,51.3,47.9,30.03,SW,236,0.0,8.0,88,0.00,,,0.22,0,Wunderground v.1.15,2013-03-21 06:02:00,
2013-03-20 23:08:00,51.4,48.0,30.03,WSW,242,1.0,8.0,88,0.00,,,0.22,0,Wunderground v.1.15,2013-03-21 06:08:00,
2013-03-20 23:14:00,51.0,47.6,30.03,West,262,2.0,3.0,88,0.00,,,0.22,0,Wunderground v.1.15,2013-03-21 06:14:00,
2013-03-20 23:20:00,50.8,47.4,30.02,WSW,252,2.0,2.0,88,0.00,,,0.22,0,Wunderground v.1.15,2013-03-21 06:20:00,
2013-03-20 23:28:00,50.8,47.4,30.02,WSW,252,3.0,5.0,88,0.00,,,0.22,0,Wunderground v.1.15,2013-03-21 06:28:00,
2013-03-20 23:34:00,51.4,48.0,30.02,WSW,247,4.0,6.0,88,0.00,,,0.22,0,Wunderground v.1.15,2013-03-21 06:34:00,
2013-03-20 23:40:00,51.8,48.4,30.02,WSW,238,4.0,4.0,88,0.00,,,0.22,0,Wunderground v.1.15,2013-03-21 06:40:00,
2013-03-20 23:46:00,52.1,48.3,30.02,SW,229,3.0,4.0,87,0.00,,,0.22,0,Wunderground v.1.15,2013-03-21 06:46:00,
2013-03-20 23:52:00,52.5,48.4,30.02,WSW,237,3.0,3.0,86,0.00,,,0.22,0,Wunderground v.1.15,2013-03-21 06:52:00,
2013-03-20 23:58:00,52.8,48.7,30.02,WSW,240,2.0,3.0,86,0.00,,,0.22,0,Wunderground v.1.15,2013-03-21 06:58:00,